Vertical_Velocity
3 -1 2 4 -1 -3 -2 -4 -0 5 -5 -8 1 1 -7 -6 2 -1 -1 6 2 9 12 12 -11 2 14 8 -0 5 7 1 -6 1 2 0 -2 6 1 -3 3 5 2
4 -1 -5 2 7 -8 -7 -2 -4 7 11 1 -9 6 -5 3 9 4 17 13 5 8 2 -4 -1 -4 -3 -2 -2 -9 -6 -6 -14 -0 2 -4 -1 5 3 2 3 4 -1
0 -5 6 1 1 11 -2 -1 -1 -2 1 1 -5 -0 -0 5 -4 8 2 -2 6 2 -5 -6 -0 -4 -7 -0 -5 -4 4 -3 -3 -5 0 2 1 2 2 4 3 4 1
1 2 2 2 -1 -1 -0 1 -4 -2 3 -1 4 -10 6 -1 -8 5 2 -0 7 5 12 2 -2 1 3 2 0 1 5 4 2 -3 5 -0 8 1 4 -4 1 3 -1
-5 -4 -0 -2 -1 2 -2 -8 -2 -2 5 3 0 0 -3 6 -1 -5 5 2 -12 2 14 9 4 -3 2 -4 -2 0 2 1 -4 5 4 2 -1 -4 -7 -2 4 4 2
-0 -1 -2 -7 -1 -1 1 -1 -2 1 1 -2 1 9 -3 -0 5 3 1 7 -1 -2 -5 4 4 4 1 4 -3 -1 1 -1 2 2 2 -0 -0 2 -0 1 -3 -2 -1
2 3 3 0 -6 2 2 -0 2 -1 -2 5 2 -2 5 -4 6 8 7 -0 1 3 -1 0 2 6 6 6 8 7 5 4 6 1 -9 -8 -3 -4 2 -0 2 3 3
-4 -5 -1 1 -4 -3 -3 4 -2 1 -2 -0 2 1 0 -2 3 5 8 8 4 5 1 4 4 1 2 2 -4 -1 -1 1 1 7 7 5 2 5 4 10 8 1 -1
-1 -4 -5 -3 -2 -0 2 3 0 -0 -1 2 -1 3 -3 9 1 -1 -1 8 1 6 1 -0 0 2 -0 -1 0 -2 -2 -0 3 1 -0 0 -1 0 -2 -0 -1 0 1
1 -0 1 -2 -3 -2 -2 0 5 -1 -2 -3 -4 -1 5 3 -1 3 -1 3 4 2 -0 5 5 1 2 -2 -2 -1 -4 -3 -2 2 -1 -2 3 4 4 -1 -3 -1 -3
1 3 -3 0 -2 -1 1 1 1 0 1 -0 -2 -2 -1 -2 -1 -1 6 -7 0 0 -1 -0 -1 1 2 -4 1 1 7 -1 -2 1 -2 -0 -0 2 1 0 -2 -1 -2
2 -2 -2 -1 -2 -0 0 3 2 2 1 -1 1 -2 -0 -3 3 3 6 4 6 1 -2 -1 1 2 -1 -1 -4 -0 0 -1 -0 0 -2 -0 1 -1 -0 1 -2 1 -1
0 -2 -2 1 -0 2 2 1 0 2 2 0 -3 -1 1 1 1 4 1 1 9 2 3 1 2 2 -0 6 0 -2 2 -2 1 2 2 1 -0 -0 1 -5 1 -3 -3
-2 -2 1 0 -0 -1 0 4 -1 -0 -1 -2 2 -1 -1 2 3 2 0 5 3 6 10 8 0 -3 2 1 2 1 2 2 2 -2 1 4 2 -1 -3 -0 -2 0 -0
-2 1 -0 -0 4 1 -1 3 -2 -3 2 3 -2 0 2 -2 -8 3 1 -3 3 -1 -0 -0 1 4 -1 1 1 2 -2 -3 -2 -1 1 -0 -2 -1 -3 -0 3 -0 -3
0 2 2 2 1 -0 1 -1 -1 0 1 -2 -0 4 6 8 7 6 7 -2 5 -0 0 -5 -2 -1 -2 1 3 -2 -1 -0 0 0 -3 -2 -2 -1 1 -0 -1 -1 -2
-1 1 0 1 1 2 2 0 -0 -1 0 0 0 0 2 6 6 7 4 8 6 5 3 0 -2 -1 0 -1 -2 1 -1 -5 -2 0 -0 1 -3 3 -3 -3 -0 3 -4
0 1 2 2 2 2 1 -0 0 0 1 -2 -1 -1 1 1 2 5 4 7 0 8 1 -3 -4 0 -1 -2 -2 2 2 -2 -4 2 -1 0 -3 -1 -5 3 1 -3 0
1 1 1 2 2 1 0 1 1 2 -1 -1 -1 4 4 6 8 7 6 2 -2 -1 -1 -2 -3 1 0 -1 -1 4 2 -4 -3 3 2 -3 -7 -1 2 -0 -2 2 2
1 1 1 1 0 -1 0 0 1 2 2 0 1 3 5 4 2 -1 1 2 2 2 2 2 2 2 2 -0 -2 -2 1 0 -3 -4 -2 0 0 -1 -3 2 3 1 -2
0 1 1 -0 -1 -1 -0 -0 1 0 1 0 1 2 2 -0 -1 3 2 3 2 1 1 1 1 1 1 -0 -1 -4 -3 -1 -0 -2 -2 -2 -3 -0 3 1 -1 -6 -4
2 0 -0 0 -1 -1 -1 0 1 -1 0 -0 -1 -0 0 1 1 1 1 -0 -0 -0 0 0 -0 -1 -0 0 -0 -2 -3 -3 -2 -2 -2 0 2 -1 -3 -2 -2 -0 3
1 1 1 -0 -1 -0 0 0 0 0 0 1 1 0 1 2 1 0 -0 -1 -2 -1 0 0 -0 -2 -2 -3 -3 -1 -0 -0 -0 1 -0 -2 -3 -2 -1 0 -0 -0 1
2 1 1 1 -0 -1 -1 -1 -1 1 0 1 0 -0 0 1 -0 -1 -2 -2 -1 -2 -1 -2 -2 -2 -1 -0 -0 -0 -1 -2 -2 -2 -2 -2 -1 -0 -0 0 1 1 1
3 1 1 1 -0 -1 -0 -1 -1 1 -0 -0 -1 -1 -1 -1 -1 -0 -1 -1 -1 -1 -0 -0 0 0 1 -1 -2 -2 -1 -1 -2 -3 -2 -1 -0 0 1 1 1 -0 -0
2 2 1 1 1 1 1 -1 -1 -1 -0 -1 -0 0 1 0 -0 -1 -2 -2 -1 -1 -1 -1 -0 -1 -2 -2 -2 -1 -2 -3 -2 -2 -1 -0 1 1 0 -0 -0 0 1
Height
1443 1440 1438 1434 1433 1430 1429 1426 1423 1417 1413 1408 1405 1400 1398 1397 1395 1388 1393 1395 1398 1402 1407 1411 1422 1438 1444 1447 1453 1456 1463 1468 1481 1488 1490 1495 1501 1505 1507 1513 1518 1520 1520
1437 1435 1433 1431 1428 1425 1424 1423 1420 1417 1409 1407 1404 1398 1397 1393 1390 1390 1388 1388 1393 1397 1406 1410 1416 1426 1433 1443 1446 1453 1459 1465 1473 1483 1485 1488 1494 1499 1503 1508 1513 1515 1516
1434 1432 1430 1426 1425 1419 1419 1418 1415 1411 1405 1403 1400 1397 1393 1388 1389 1388 1388 1385 1392 1393 1402 1405 1411 1419 1429 1434 1440 1447 1451 1457 1464 1471 1475 1481 1487 1492 1496 1503 1508 1510 1512
1431 1428 1426 1422 1419 1417 1413 1412 1410 1407 1403 1398 1395 1394 1390 1388 1389 1388 1388 1384 1386 1397 1400 1402 1409 1416 1423 1426 1434 1442 1447 1452 1455 1462 1468 1472 1477 1483 1489 1496 1503 1505 1508
1428 1426 1422 1418 1416 1413 1409 1409 1407 1402 1399 1395 1392 1390 1390 1387 1386 1387 1385 1384 1390 1399 1401 1403 1408 1413 1418 1425 1431 1436 1441 1444 1450 1455 1458 1464 1470 1475 1481 1490 1497 1501 1503
1424 1422 1419 1416 1412 1410 1407 1405 1403 1399 1396 1392 1389 1388 1385 1384 1384 1383 1384 1383 1390 1396 1399 1403 1407 1412 1416 1421 1426 1431 1434 1440 1443 1448 1453 1460 1466 1470 1476 1482 1488 1494 1499
1418 1415 1413 1411 1408 1405 1402 1400 1397 1395 1393 1389 1385 1383 1382 1382 1379 1380 1381 1382 1390 1394 1397 1402 1407 1411 1415 1418 1423 1425 1430 1434 1440 1445 1452 1459 1463 1465 1471 1475 1481 1486 1492
1411 1409 1406 1404 1401 1399 1397 1394 1392 1390 1388 1386 1381 1379 1377 1378 1377 1377 1377 1382 1386 1392 1397 1402 1404 1408 1412 1414 1418 1423 1428 1435 1443 1448 1455 1457 1460 1462 1467 1473 1477 1482 1485
1403 1401 1399 1396 1393 1391 1389 1387 1386 1384 1382 1380 1376 1375 1374 1373 1374 1374 1377 1380 1383 1389 1394 1399 1402 1406 1409 1413 1418 1421 1427 1435 1443 1449 1453 1455 1457 1460 1465 1470 1474 1477 1481
1394 1392 1390 1387 1384 1382 1381 1379 1378 1377 1376 1374 1372 1371 1369 1369 1370 1371 1373 1377 1380 1383 1391 1396 1400 1404 1406 1411 1418 1421 1427 1434 1441 1445 1448 1455 1457 1459 1462 1465 1470 1474 1478
1385 1383 1381 1378 1376 1373 1371 1370 1370 1369 1368 1367 1366 1365 1365 1366 1366 1368 1370 1374 1376 1379 1386 1392 1397 1401 1404 1410 1418 1425 1429 1431 1438 1442 1446 1452 1455 1458 1459 1461 1465 1471 1473
1376 1374 1372 1370 1367 1365 1363 1361 1361 1361 1360 1359 1359 1360 1361 1363 1364 1365 1370 1372 1373 1376 1383 1390 1396 1399 1404 1408 1417 1423 1428 1431 1437 1440 1444 1449 1452 1454 1458 1459 1462 1466 1469
1366 1364 1362 1360 1358 1357 1355 1354 1353 1352 1351 1352 1353 1354 1355 1356 1359 1362 1361 1369 1372 1375 1382 1389 1395 1399 1406 1410 1414 1421 1425 1430 1435 1439 1443 1446 1448 1451 1455 1457 1462 1463 1465
1355 1354 1352 1350 1349 1348 1347 1346 1345 1345 1345 1345 1347 1348 1350 1352 1355 1356 1362 1367 1371 1377 1383 1388 1393 1401 1405 1410 1413 1417 1424 1428 1432 1439 1444 1445 1445 1449 1454 1457 1458 1460 1462
1346 1345 1344 1341 1339 1340 1340 1339 1339 1339 1339 1339 1341 1342 1344 1346 1349 1352 1355 1360 1365 1373 1379 1387 1393 1397 1403 1407 1411 1415 1421 1427 1432 1435 1439 1441 1446 1450 1450 1454 1455 1455 1457
1340 1339 1338 1337 1335 1335 1335 1334 1333 1333 1333 1333 1335 1337 1339 1342 1345 1348 1353 1359 1366 1371 1378 1382 1390 1395 1402 1406 1408 1414 1419 1426 1430 1433 1437 1442 1444 1449 1450 1451 1452 1452 1452
1336 1336 1334 1333 1332 1331 1331 1330 1329 1329 1329 1330 1331 1333 1336 1339 1342 1347 1354 1361 1368 1371 1375 1381 1388 1395 1399 1403 1409 1414 1416 1422 1428 1432 1436 1439 1443 1444 1447 1450 1451 1446 1447
1332 1331 1330 1330 1329 1328 1327 1327 1327 1328 1328 1329 1330 1332 1334 1337 1342 1348 1355 1362 1368 1374 1378 1383 1389 1395 1398 1404 1411 1414 1414 1417 1427 1432 1433 1435 1437 1442 1445 1447 1442 1442 1443
1329 1328 1328 1328 1327 1327 1326 1327 1327 1328 1329 1331 1332 1335 1338 1342 1348 1353 1358 1362 1367 1372 1378 1384 1390 1395 1399 1404 1410 1412 1413 1416 1425 1429 1428 1430 1434 1440 1440 1439 1438 1437 1434
1327 1327 1326 1327 1326 1326 1327 1327 1329 1330 1332 1334 1336 1339 1342 1347 1351 1355 1361 1366 1371 1376 1381 1385 1390 1394 1399 1402 1407 1409 1411 1414 1419 1423 1426 1428 1431 1433 1434 1434 1431 1428 1427
1326 1326 1325 1326 1326 1327 1328 1329 1330 1332 1334 1337 1339 1342 1346 1349 1353 1358 1363 1368 1372 1376 1380 1384 1388 1392 1396 1399 1402 1405 1409 1413 1417 1420 1422 1425 1427 1428 1427 1425 1423 1421 1420
1326 1325 1325 1325 1326 1327 1329 1331 1332 1335 1337 1339 1342 1345 1349 1353 1357 1360 1364 1368 1372 1376 1380 1383 1387 1390 1393 1397 1400 1404 1407 1411 1414 1417 1419 1420 1420 1420 1418 1417 1415 1414 1412
1324 1324 1324 1324 1326 1327 1329 1331 1334 1336 1339 1342 1344 1347 1351 1355 1358 1362 1365 1368 1372 1375 1378 1381 1385 1388 1392 1396 1399 1403 1406 1408 1411 1413 1414 1414 1413 1412 1411 1410 1408 1406 1403
1321 1322 1322 1323 1325 1326 1329 1331 1334 1337 1339 1342 1346 1349 1352 1355 1358 1361 1364 1368 1371 1375 1378 1382 1385 1388 1392 1394 1397 1400 1402 1405 1407 1407 1408 1407 1406 1405 1404 1402 1400 1398 1395
1318 1319 1319 1320 1322 1324 1327 1330 1333 1336 1339 1342 1345 1348 1351 1354 1357 1360 1363 1367 1371 1374 1377 1380 1383 1386 1389 1392 1395 1397 1399 1400 1401 1402 1402 1401 1399 1398 1396 1394 1392 1389 1386
1315 1316 1316 1318 1319 1322 1324 1327 1330 1334 1337 1340 1344 1347 1350 1353 1356 1359 1362 1365 1368 1371 1375 1378 1381 1384 1387 1389 1391 1393 1395 1396 1396 1396 1395 1394 1392 1390 1388 1385 1383 1380 1377